Terminal Aerodrome Forecast
Issued by NWS Blacksburg, VA

Current Version | Previous Version | Text Only | Print | Product List | Glossary Off
Versions: 1 2 3 4 5 6 7 8 9 10 11 12 13 14 15 16 17 18 19 20 21 22 23 24 25 26 27 28 29 30 31 32 33 34 35 36 37 38 39 40 41 42 43 44 45 46 47 48

000
FTUS41 KRNK 151845 AAA
TAFBLF
TAF AMD
KBLF 151845Z 1519/1618 28006KT P6SM VCSH SCT005 BKN010 OVC020
      TEMPO 1519/1523 SCT015 BKN025
     FM152300 30004KT P6SM BKN030
     FM160400 VRB03KT P6SM SCT015
     FM160600 00000KT 2SM BR SCT010
     FM161200 00000KT P6SM SCT010
     FM161600 00000KT P6SM SCT150=

USA.gov is the U.S. government's official web portal to all federal, state and local government web resources and services.